Regional Weather Roundup
Issued by NWS

Home | Current Version | Previous Version | Graphics & Text | Print | Product List | Glossary On
Versions: 1 2 3 4 5 6 7 8 9 10 11 12 13 14 15 16 17 18 19 20 21 22 23 24 25 26 27 28 29 30 31 32 33 34 35 36 37 38 39 40 41 42 43 44 45 46 47 48 49 50
866
ASUS44 KMEG 291510
RWRTN
TENNESSEE HOURLY STATE WEATHER ROUNDUP
NATIONAL WEATHER SERVICE MEMPHIS TN
1000 AM CDT MON AUG 29 2016

TNZ002-004-019-021-049-052-054-088>092-291600-
WEST TENNESSEE

CITY           SKY/WX    TMP DP  RH WIND       PRES   REMARKS
MEMPHIS INTL   MOSUNNY   88  71  57 E3        30.12R HX  94
NWS MEMPHIS      N/A     84 N/A N/A MISG        N/A
JACKSON        SUNNY     85  74  69 VRB5      30.14S HX  92
DYERSBURG      SUNNY     82  73  74 MISG      30.14S
UNION CITY     SUNNY     81  75  83 NE5       30.15S
PARIS          SUNNY     79  72  78 CALM      30.17S
LEXINGTON      SUNNY     82  72  69 NE3       30.15R
$$

TNZ008-025-027-028-033-062-065-066-291600-
NORTH MIDDLE TENNESSEE

CITY           SKY/WX    TMP DP  RH WIND       PRES   REMARKS
NASHVILLE      MOSUNNY   83  71  67 CALM      30.19R
CLARKSVILLE    SUNNY     80  71  74 VRB5      30.18S
SMYRNA         MOSUNNY   82  72  69 MISG      30.19S
COOKEVILLE     SUNNY     82  73  74 CALM      30.20R
CROSSVILLE     SUNNY     79  67  66 CALM      30.25R
$$

TNZ061-075-076-078-094-096-097-291600-
SOUTH MIDDLE TENNESSEE

CITY           SKY/WX    TMP DP  RH WIND       PRES   REMARKS
FAYETTEVILLE   SUNNY     82  72  69 VRB6      30.18S
TULLAHOMA      MOSUNNY   82  68  61 S8        30.20S
WINCHESTER     MOSUNNY   82  70  65 SE5       30.19S
MCMINNVILLE    SUNNY     84  72  65 SE5       30.20R
COLUMBIA       SUNNY     84  81  89 E5        30.16R HX  98
SHELBYVILLE    MOSUNNY   84  73  70 S6        30.19S HX  91
$$

TNZ017-018-042-046-047-291600-
NORTHEAST TENNESSEE

CITY           SKY/WX    TMP DP  RH WIND       PRES   REMARKS
TRI CITIES     MOSUNNY   78  66  66 VRB3      30.24S
ELIZABETHTON   SUNNY     79  64  61 CALM      30.23F
$$

TNZ012-013-036-069-073-074-291600-
CENTRAL EAST TENNESSEE

CITY           SKY/WX    TMP DP  RH WIND       PRES   REMARKS
KNOXVILLE      MOSUNNY   81  69  67 VRB5      30.20R
OAK RIDGE      SUNNY     82  66  58 VRB3      30.21S
GATLINBURG     SUNNY     75  63  64 CALM      30.20S
MORRISTOWN     SUNNY     81  64  57 VRB3      30.22R
$$

TNZ083-085-099-291600-
SOUTHEAST TENNESSEE

CITY           SKY/WX    TMP DP  RH WIND       PRES   REMARKS
CHATTANOOGA    MOSUNNY   82  69  64 N6        30.19R
$$

SKY/WX REPORTED AS FAIR MEANS FEW OR NO CLOUDS BELOW
12 THOUSAND FEET.





USA.gov is the U.S. government's official web portal to all federal, state and local government web resources and services.